Location: Unspecified
(0.0000°N, 0.0000°E)
Time: 22:17:35
(UTC+00:00)

STARLINK-1281 - Visible Passes

Search period start: 14 December 2025 00:00
Search period end: 24 December 2025 00:00
Orbit: 546 x 548 km, 53.1° (Epoch: 14 December)

Date Brightness Start Highest point End Pass type
(mag) Time Alt. Az. Time Alt. Az. Time Alt. Az.
14 Dec 3.5 18:42:39 10° NNW 18:46:44 67° ENE 18:50:50 10° SE visible
15 Dec 3.8 18:36:17 10° NW 18:40:23 76° WSW 18:44:30 10° SSE visible
16 Dec 4.9 18:30:05 10° NW 18:34:02 46° SW 18:38:00 10° SSE visible
17 Dec 7.2 04:50:20 10° SE 04:51:35 11° SE 04:52:50 10° ESE visible
17 Dec 6.0 18:24:06 10° WNW 18:27:41 29° SW 18:31:18 10° S visible
18 Dec 6.8 04:42:31 10° SSE 04:45:16 17° SE 04:48:00 10° E visible
18 Dec 6.7 18:18:23 10° WNW 18:21:21 19° SW 18:24:20 10° S visible
19 Dec 5.9 04:35:27 10° S 04:38:56 26° SE 04:42:24 10° ENE visible
20 Dec 5.0 04:28:41 10° SSW 04:32:35 40° SE 04:36:28 10° NE visible
21 Dec 3.9 04:22:08 10° SSW 04:26:14 66° SE 04:30:18 10° NE visible
22 Dec 3.8 04:20:43 54° NNE 04:20:43 54° NNE 04:23:58 10° NNE visible
